Location: Atherton
(17.2661°S, 145.4859°E)
Time: 05:56:01
(UTC+10:00)

Explorer 11/Cluster Stage 4 - Pass Details

Date: 02 July 2025
Orbit: 463 x 1188 km, 28.8° (Epoch: 20 July)

Event Time Altitude Azimuth Distance (km) Brightness Sun altitude
Rises 06:06:03 0° 316° (NW) 3,084 9.4 -10.2°
Reaches altitude 10° 06:08:24 10° 324° (NW) 2,278 8.8 -9.7°
Maximum altitude 06:13:31 40° 33° (NNE) 1,259 8.2 -8.6°
Drops below altitude 10° 06:19:44 10° 100° (E) 2,777 10.4 -7.2°
Sets 06:22:51 0° 106° (ESE) 3,839 11.0 -6.5°
